Terminal Aerodrome Forecast
Issued by NWS

Home | Current Version | Previous Version | Text Only | Print | Product List | Glossary On
Versions: 1 2 3 4 5 6 7 8 9 10 11 12 13
000
FTUS46 KMTR 180538
TAFSNS
TAF
KSNS 180538Z 1806/1906 29004KT P6SM SCT180
     FM180900 10004KT P6SM FEW008 BKN200
     FM182000 28010KT P6SM SCT180
     FM190300 29006KT P6SM SCT180=

USA.gov is the U.S. government's official web portal to all federal, state and local government web resources and services.